1277164826632,85.6234
1277164886632,85.5315
1277164946632,85.8191
1277165006632,85.7001
1277165066632,85.7537
1277165126632,85.7380
1277165186632,85.7173
1277165246632,85.8003
1277165306632,85.5693
1277165366632,85.7206
1277165426632,85.5871
1277165486632,85.4910
1277165546632,85.9099
1277165606632,85.6151
1277165666632,85.8355
1277165726632,85.7167
1277165786632,85.8070
1277165846632,85.7619
1277165906632,85.5802
1277165966632,85.6566
1277166026632,85.7414
1277166086632,85.8812
1277166146632,85.8696
1277166206632,85.5851
1277166266632,85.7255
1277166326632,85.8433
1277166386632,85.8025
1277166446632,85.8227
1277166506632,85.8034
1277166566632,85.7210
1277166626632,85.9675
1277166686632,85.8361
1277166746632,85.9167
1277166806632,85.8716
1277166866632,85.6886
1277166926632,85.8723
1277166986632,85.7851
1277167046632,85.8091
1277167106632,85.9354
1277167166632,85.9987
1277167226632,85.7912
1277167286632,85.8899
1277167346632,85.8382
1277167406632,85.6948
1277167466632,86.0352
1277167526632,85.8425
1277167586632,85.8982
1277167646632,85.7236
1277167706632,85.9848
1277167766632,85.7743
1277167826632,85.9046
1277167886632,85.8368
1277167946632,85.8796
1277168006632,85.8555
1277168066632,85.5365
1277168126632,85.9765
1277168186632,85.7824
1277168246632,85.7261
1277168306632,85.6775
1277168366632,85.7039
1277168426642,85.7994
1277168486642,85.7343
1277168546642,85.6624
1277168606642,85.8809
1277168666642,85.6962
1277168726642,85.7881
1277168786642,85.6942
1277168846642,85.6953
1277168906642,85.7512
1277168966642,85.6956
1277169026642,85.8608
1277169086642,85.7853
1277169146642,85.7004
1277169206642,85.6194
1277169266642,85.5533
1277169326642,85.8338
1277169386642,85.8734
1277169446642,85.8547
1277169506642,85.9445
1277169566642,85.8023
1277169626642,85.8009
1277169686642,85.7841
1277169746642,85.8813
1277169806642,85.6863
1277169866642,85.8194
1277169926642,85.7519
1277169986642,85.7708
1277170046642,85.8284
1277170106642,85.8286
1277170166642,85.8141
1277170226642,85.7372
1277170286642,85.7242
1277170346642,85.7467
1277170406642,85.7809
1277170466642,85.8342
1277170526642,85.7915
1277170586642,85.9076
1277170646642,85.9727
1277170706642,85.7928
1277170766642,85.8999
1277170826642,85.8696
1277170886642,85.7610
1277170946642,85.9170
1277171006642,85.8513
1277171066642,85.8453
1277171126642,85.6886
1277171186642,85.7638
1277171246642,85.8828
1277171306642,85.8163
1277171366642,85.6958
1277171426642,85.7544
1277171486642,85.8876
1277171546642,85.8291
1277171606642,85.6195
1277171666642,85.8675
1277171726642,85.7041
1277171786642,85.8112
1277171846642,85.8192
1277171906642,85.8999
1277171966642,85.8689
1277172026651,85.9226
1277172086651,86.0013
1277172146651,85.9278
1277172206651,85.8544
1277172266651,86.0081
1277172326651,85.6816
1277172386651,85.7618
1277172446651,85.8817
1277172506651,86.1224
1277172566651,85.8842
1277172626651,85.8293
1277172686651,85.9452
1277172746651,86.0421
1277172806651,85.8139
1277172866651,85.9203
1277172926651,85.7945
1277172986651,85.8622
1277173046651,85.8599
1277173106651,85.7178
1277173166651,85.9759
1277173226651,85.9622
1277173286651,85.7510
1277173346651,85.9023
1277173406651,85.8159
1277173466651,85.8341
1277173526651,85.9505
1277173586651,85.9020
1277173646651,85.7273
1277173706651,85.8260
1277173766651,85.8457
1277173826651,85.7180
1277173886651,85.9028
1277173946651,85.7305
1277174006651,85.7818
1277174066651,85.8548
1277174126651,85.7796
1277174186651,85.7066
1277174246651,85.6155
1277174306651,85.9059
1277174366651,85.8805
1277174426651,85.8751
1277174486651,85.6295
1277174546651,85.7801
1277174606651,85.7148
1277174666651,85.7708
1277174726651,85.7650
1277174786651,85.8511
1277174846651,85.9619
1277174906651,86.0234
1277174966651,85.7742
1277175026651,85.8961
1277175086651,85.7398
1277175146651,85.7356
1277175206651,85.8599
1277175266651,85.8543
1277175326651,85.9249
1277175386651,85.9778
1277175446651,85.9315
1277175506651,85.9492
1277175566651,86.1218
1277175626660,86.1325
1277175686660,86.0474
1277175746660,86.1079
1277175806660,85.9604
1277175866660,85.9829
1277175926660,86.0756
1277175986660,86.0566
1277176046660,85.9668
1277176106660,85.9953
1277176166660,86.1668
1277176226660,86.0253
1277176286660,86.0674
1277176346660,85.8579
1277176406660,86.0363
1277176466660,86.1145
1277176526660,86.1401
1277176586660,86.0971
1277176646660,86.2645
1277176706660,86.1305
1277176766660,86.2631
1277176826660,86.1808
1277176886660,86.2045
1277176946660,86.1412
1277177006660,86.1611
1277177066660,86.2687
1277177126660,86.3498
1277177186660,86.0809
1277177246660,86.1745
1277177306660,86.2391
1277177366660,86.0491
1277177426660,86.4492
1277177486660,86.2876
1277177546660,86.2963
1277177606660,86.4100
1277177666660,86.0216
1277177726660,86.3744
1277177786660,86.3903
1277177846660,86.5797
1277177906660,86.1503
1277177966660,86.3533
1277178026660,86.3312
1277178086660,86.2502
1277178146660,86.4053
1277178206660,86.4084
1277178266660,86.1732
1277178326660,86.3291
1277178386660,86.3196
1277178446660,86.3378
1277178506660,86.4722
1277178566660,86.5064
1277178626660,86.2069
1277178686660,86.4648
1277178746660,86.3040
1277178806660,86.2538
1277178866660,86.1607
1277178926660,86.3466
1277178986660,86.3256
1277179046660,86.0744
1277179106660,86.1239
1277179166660,86.4773
1277179226669,86.1395
1277179286669,86.1183
1277179346669,86.3769
1277179406669,86.3649
1277179466669,86.4542
1277179526669,86.1639
1277179586669,86.0276
1277179646669,86.3507
1277179706669,86.4676
1277179766669,86.2810
1277179826669,86.2913
1277179886669,86.4076
1277179946669,86.1508
1277180006669,86.4281
1277180066669,86.2101
1277180126669,86.3104
1277180186669,86.1830
1277180246669,86.3885
1277180306669,86.1852
1277180366669,86.3170
1277180426669,86.2458
1277180486669,86.2596
1277180546669,85.9755
1277180606669,86.2782
1277180666669,86.3102
1277180726669,86.4857
1277180786669,86.4008
1277180846669,86.3041
1277180906669,86.3398
1277180966669,86.2631
1277181026669,86.3671
1277181086669,86.1982
1277181146669,86.3970
1277181206669,86.3065
1277181266669,86.4041
1277181326669,86.3669
1277181386669,86.5214
1277181446669,86.4728
1277181506669,86.1894
1277181566669,86.3441
1277181626669,86.3329
1277181686669,86.3369
1277181746669,86.1570
1277181806669,86.2890
1277181866669,86.3022
1277181926669,86.3463
1277181986669,86.6340
1277182046669,86.3626
1277182106669,86.5832
1277182166669,86.3645
1277182226669,86.4229
1277182286669,86.3251
1277182346669,86.3362
1277182406669,86.5249
1277182466669,86.6310
1277182526669,86.3209
1277182586669,86.6771
1277182646669,86.4024
1277182706669,86.6172
1277182766669,86.5021
1277182826678,86.7902
1277182886678,86.5545
1277182946678,86.8203
1277183006678,86.8119
1277183066678,86.7044
1277183126678,86.6449
1277183186678,86.6919
1277183246678,86.7968
1277183306678,86.5225
1277183366678,86.8028
1277183426678,86.8103
1277183486678,86.8486
1277183546678,86.9029
1277183606678,86.7270
1277183666678,86.7833
1277183726678,86.9167
1277183786678,86.8979
1277183846678,86.9793
1277183906678,86.7683
1277183966678,86.9508
1277184026678,86.8526
1277184086678,86.7575
1277184146678,86.8717
1277184206678,86.8599
1277184266678,87.1192
1277184326678,86.9883
1277184386678,86.9421
1277184446678,87.1262
1277184506678,86.9021
1277184566678,86.9466
1277184626678,87.0118
1277184686678,87.1441
1277184746678,87.0294
1277184806678,86.9871
1277184866678,86.9849
1277184926678,87.1280
1277184986678,87.0853
1277185046678,87.2403
1277185106678,87.0385
1277185166678,87.0182
1277185226678,87.0093
1277185286678,87.2648
1277185346678,87.1371
1277185406678,87.1627
1277185466678,87.2542
1277185526678,87.0087
1277185586678,87.1099
1277185646678,87.1963
1277185706678,87.1536
1277185766678,87.1773
1277185826678,87.3758
1277185886678,87.0637
1277185946678,87.1555
1277186006678,87.1884
1277186066678,86.9627
1277186126678,87.0159
1277186186678,87.1156
1277186246678,87.1253
1277186306678,86.9635
1277186366678,87.0199
1277186426686,86.8595
1277186486686,86.9881
1277186546686,87.0046
1277186606686,87.1067
1277186666686,87.1610
1277186726686,87.1080
1277186786686,86.9973
1277186846686,86.9643
1277186906686,87.0138
1277186966686,87.0569
1277187026686,86.9311
1277187086686,87.1729
1277187146686,87.1043
1277187206686,87.2488
1277187266686,86.7345
1277187326686,87.0422
1277187386686,87.2046
1277187446686,86.9960
1277187506686,87.1677
1277187566686,87.1596
1277187626686,87.1108
1277187686686,87.0096
1277187746686,87.0176
1277187806686,87.1634
1277187866686,86.8284
1277187926686,87.0585
1277187986686,87.0541
1277188046686,86.8989
1277188106686,87.0574
1277188166686,87.1721
1277188226686,87.0167
1277188286686,86.9742
1277188346686,87.0676
1277188406686,87.2079
1277188466686,87.3481
1277188526686,87.0193
1277188586686,87.0009
1277188646686,86.9081
1277188706686,86.9382
1277188766686,86.8601
1277188826686,86.8455
1277188886686,87.0232
1277188946686,87.0614
1277189006686,86.9067
1277189066686,86.9796
1277189126686,87.1587
1277189186686,87.0788
1277189246686,86.8989
1277189306686,87.0372
1277189366686,87.1232
1277189426686,86.9024
1277189486686,86.8850
1277189546686,87.1672
1277189606686,87.0632
1277189666686,87.0897
1277189726686,87.0420
1277189786686,87.1598
1277189846686,87.0943
1277189906686,87.1100
1277189966686,86.9602
1277190026695,87.1541
1277190086695,86.9388
1277190146695,87.2030
1277190206695,87.0140
1277190266695,87.0227
1277190326695,87.1256
1277190386695,87.0356
1277190446695,86.8194
1277190506695,87.0348
1277190566695,86.9302
1277190626695,87.0667
1277190686695,87.0965
1277190746695,87.2425
1277190806695,86.9770
1277190866695,86.9890
1277190926695,87.2084
1277190986695,87.0901
1277191046695,87.0460
1277191106695,87.1975
1277191166695,87.1035
1277191226695,87.0866
1277191286695,87.0756
1277191346695,87.1442
1277191406695,87.2105
1277191466695,87.1172
1277191526695,87.0304
1277191586695,87.0773
1277191646695,87.1827
1277191706695,87.1799
1277191766695,87.0165
1277191826695,87.1350
1277191886695,87.1087
1277191946695,87.3876
1277192006695,87.1800
1277192066695,87.0049
1277192126695,87.1653
1277192186695,87.2409
1277192246695,87.0412
1277192306695,87.1103
1277192366695,87.0873
1277192426695,87.1245
1277192486695,87.1655
1277192546695,87.0939
1277192606695,87.2505
1277192666695,87.1876
1277192726695,87.3900
1277192786695,87.1539
1277192846695,87.3035
1277192906695,87.0864
1277192966695,87.2834
1277193026695,87.1512
1277193086695,87.3463
1277193146695,87.1583
1277193206695,87.0659
1277193266695,87.1702
1277193326695,87.1302
1277193386695,87.1123
1277193446695,87.0102
1277193506695,87.1195
1277193566695,87.1089
1277193626703,87.1573
1277193686703,87.1482
1277193746703,87.0628
1277193806703,87.2082
1277193866703,87.2387
1277193926703,87.0840
1277193986703,87.0516
1277194046703,87.0223
1277194106703,87.4065
1277194166703,87.1277
1277194226703,87.0652
1277194286703,87.2241
1277194346703,86.9482
1277194406703,87.0583
1277194466703,87.1910
1277194526703,87.1324
1277194586703,87.2516
1277194646703,86.9892
1277194706703,87.1969
1277194766703,87.0301
1277194826703,87.0729
1277194886703,86.9248
1277194946703,87.1156
1277195006703,87.1567
1277195066703,87.1194
1277195126703,87.2196
1277195186703,87.2110
1277195246703,87.1638
1277195306703,87.2677
1277195366703,87.2294
1277195426703,87.1975
1277195486703,87.3660
1277195546703,87.0803
1277195606703,87.1507
1277195666703,87.2005
1277195726703,87.2076
1277195786703,87.1641
1277195846703,87.0993
1277195906703,86.9057
1277195966703,87.1633
1277196026703,87.1161
1277196086703,87.1558
1277196146703,87.2174
1277196206703,87.1571
1277196266703,87.2794
1277196326703,87.1685
1277196386703,87.2124
1277196446703,87.2413
1277196506703,87.0664
1277196566703,87.0698
1277196626703,87.2001
1277196686703,87.2967
1277196746703,87.2601
1277196806703,87.3308
1277196866703,87.2601
1277196926703,87.1817
1277196986703,87.1962
1277197046703,87.3062
1277197106703,87.2445
1277197166703,87.1026
1277197226711,87.2723
1277197286711,87.3180
1277197346711,87.2064
1277197406711,87.3409
1277197466711,87.2671
1277197526711,87.2595
1277197586711,87.2179
1277197646711,87.0301
1277197706711,87.3283
1277197766711,87.3714
1277197826711,87.4731
1277197886711,87.2686
1277197946711,87.2835
1277198006711,87.2511
1277198066711,87.2082
1277198126711,87.4748
1277198186711,87.4358
1277198246711,87.5290
1277198306711,87.4111
1277198366711,87.5990
1277198426711,87.5011
1277198486711,87.5519
1277198546711,87.4474
1277198606711,87.2339
1277198666711,87.1480
1277198726711,87.4696
1277198786711,87.4199
1277198846711,87.3174
1277198906711,87.3920
1277198966711,87.5179
1277199026711,87.5207
1277199086711,87.3697
1277199146711,87.4299
1277199206711,87.4950
1277199266711,87.4165
1277199326711,87.7733
1277199386711,87.6229
1277199446711,87.7805
1277199506711,87.7419
1277199566711,87.6275
1277199626711,87.6175
1277199686711,87.7018
1277199746711,87.6953
1277199806711,87.6434
1277199866711,87.3829
1277199926711,87.6895
1277199986711,87.5025
1277200046711,87.6476
1277200106711,87.7323
1277200166711,87.7065
1277200226711,87.5290
1277200286711,87.5942
1277200346711,87.5163
1277200406711,87.4546
1277200466711,87.6592
1277200526711,87.7382
1277200586711,87.5356
1277200646711,87.5374
1277200706711,87.6545
1277200766711,87.7829
1277200826720,87.7176
1277200886720,87.4335
1277200946720,87.5848
1277201006720,87.5921
1277201066720,87.4281
1277201126720,87.4731
1277201186720,87.5465
1277201246720,87.4685
1277201306720,87.4823
1277201366720,87.5352
1277201426720,87.5598
1277201486720,87.5648
1277201546720,87.4699
1277201606720,87.4857
1277201666720,87.5357
1277201726720,87.5879
1277201786720,87.5369
1277201846720,87.4155
1277201906720,87.4571
1277201966720,87.3707
1277202026720,87.4458
1277202086720,87.3136
1277202146720,87.3547
1277202206720,87.3576
1277202266720,87.2676
1277202326720,87.3776
1277202386720,87.3238
1277202446720,87.3959
1277202506720,87.4846
1277202566720,87.3741
1277202626720,87.2858
1277202686720,87.2015
1277202746720,87.4702
1277202806720,87.4404
1277202866720,87.2986
1277202926720,87.3297
1277202986720,87.4597
1277203046720,87.4699
1277203106720,87.1893
1277203166720,87.4022
1277203226720,87.4423
1277203286720,87.6558
1277203346720,87.4547
1277203406720,87.4704
1277203466720,87.3392
1277203526720,87.3979
1277203586720,87.2252
1277203646720,87.2995
1277203706720,87.4418
1277203766720,87.4067
1277203826720,87.3482
1277203886720,87.5570
1277203946720,87.5489
1277204006720,87.3703
1277204066720,87.2852
1277204126720,87.2185
1277204186720,87.4044
1277204246720,87.4996
1277204306720,87.3716
1277204366720,87.3109
1277204426728,87.4904
1277204486728,87.3790
1277204546728,87.3346
1277204606728,87.3149
1277204666728,87.5639
1277204726728,87.5560
1277204786728,87.1905
1277204846728,87.3200
1277204906728,87.5928
1277204966728,87.4466
1277205026728,87.5534
1277205086728,87.4184
1277205146728,87.4767
1277205206728,87.5302
1277205266728,87.5063
1277205326728,87.3116
1277205386728,87.7560
1277205446728,87.3465
1277205506728,87.6203
1277205566728,87.4866
1277205626728,87.5449
1277205686728,87.4638
1277205746728,87.9058
1277205806728,87.3390
1277205866728,87.5262
1277205926728,87.5004
1277205986728,87.2837
1277206046728,87.4867
1277206106728,87.5483
1277206166728,87.1256
1277206226728,87.3739
1277206286728,87.2193
1277206346728,87.2237
1277206406728,87.2847
1277206466728,87.4430
1277206526728,87.2087
1277206586728,87.4948
1277206646728,87.6080
1277206706728,87.3770
1277206766728,87.4347
1277206826728,87.1497
1277206886728,87.2479
1277206946728,87.4171
1277207006728,87.7795
1277207066728,87.4131
1277207126728,87.4304
1277207186728,87.2579
1277207246728,87.4810
1277207306728,87.5727
1277207366728,87.4627
1277207426728,87.4056
1277207486728,87.2360
1277207546728,87.4767
1277207606728,87.2924
1277207666728,87.4513
1277207726728,87.4586
1277207786728,87.3887
1277207846728,87.4348
1277207906728,87.3671
1277207966728,87.3507
1277208026736,87.3859
1277208086736,87.3345
1277208146736,87.7294
1277208206736,87.5352
1277208266736,87.5702
1277208326736,87.4346
1277208386736,87.5746
1277208446736,87.4984
1277208506736,87.6101
1277208566736,87.5888
1277208626736,87.6538
1277208686736,87.4081
1277208746736,87.6811
1277208806736,87.6899
1277208866736,87.5291
1277208926736,87.7067
1277208986736,87.6837
1277209046736,87.6754
1277209106736,87.5917
1277209166736,87.7094
1277209226736,87.7100
1277209286736,87.7908
1277209346736,87.2785
1277209406736,87.6394
1277209466736,87.6373
1277209526736,87.7061
1277209586736,87.5494
1277209646736,87.5724
1277209706736,87.5746
1277209766736,87.5372
1277209826736,87.5564
1277209886736,87.5495
1277209946736,87.5469
1277210006736,87.5742
1277210066736,87.6430
1277210126736,87.4694
1277210186736,87.5215
1277210246736,87.4850
1277210306736,87.5784
1277210366736,87.6880
1277210426736,87.5872
1277210486736,87.6523
1277210546736,87.5101
1277210606736,87.6542
1277210666736,87.6585
1277210726736,87.4103
1277210786736,87.7346
1277210846736,87.4482
1277210906736,87.7290
1277210966736,87.6207
1277211026736,87.6407
1277211086736,87.5136
1277211146736,87.5227
1277211206736,87.9349
1277211266736,87.4554
1277211326736,87.5752
1277211386736,87.4641
1277211446736,87.5606
1277211506736,87.6407
1277211566736,87.5508
1277211626745,87.4227
1277211686745,87.6646
1277211746744,87.6690
1277211806744,87.4318
1277211866744,87.4836
1277211926744,87.5206
1277211986744,87.6412
1277212046744,87.7299
1277212106744,87.7249
1277212166744,87.7504
1277212226745,87.6120
1277212286745,87.8276
1277212346745,87.5790
1277212406744,87.8980
1277212466744,87.6706
1277212526745,87.7306
1277212586745,87.4568
1277212646745,87.8519
1277212706745,87.6334
1277212766745,87.8559
1277212826745,87.8458
1277212886745,87.8777
1277212946745,87.7895
1277213006745,87.8159
1277213066744,87.8961
1277213126744,88.0648
1277213186744,87.7828
1277213246744,87.8828
1277213306744,87.9418
1277213366744,88.0066
1277213426744,87.8626
1277213486744,87.9791
1277213546745,87.9309
1277213606745,88.1337
1277213666745,87.9425
1277213726744,88.1168
1277213786744,87.9810
1277213846744,87.8523
1277213906745,87.9641
1277213966745,88.2102
1277214026745,87.8984
1277214086745,88.1343
1277214146745,87.9902
1277214206745,88.1589
1277214266745,88.1143
1277214326745,88.2339
1277214386745,87.9801
1277214446744,88.2125
1277214506744,88.0121
1277214566744,88.1032
1277214626744,88.1307
1277214686744,88.1438
1277214746744,88.1067
1277214806744,87.9814
1277214866744,88.0807
1277214926745,88.2036
1277214986745,88.0602
1277215046745,88.1969
1277215106744,88.0092
1277215166744,88.0532
1277215226753,88.0707
1277215286753,88.1288
1277215346753,88.1833
1277215406753,88.2071
1277215466753,88.1023
1277215526753,88.2103
1277215586753,88.1906
1277215646753,88.3019
1277215706753,88.3776
1277215766753,88.0483
1277215826753,88.1578
1277215886753,88.1952
1277215946753,88.3353
1277216006753,88.1226
1277216066753,88.0567
1277216126753,88.1287
1277216186753,88.0406
1277216246753,88.2335
1277216306753,88.1578
1277216366753,88.1633
1277216426753,88.3140
1277216486753,88.2783
1277216546753,88.1303
1277216606753,88.3649
1277216666753,88.2818
1277216726753,88.1961
1277216786753,88.4244
1277216846753,88.0616
1277216906753,88.2957
1277216966753,88.3440
1277217026753,88.2516
1277217086753,88.0897
1277217146753,88.2040
1277217206753,88.1376
1277217266753,88.2267
1277217326753,88.1658
1277217386753,88.2086
1277217446753,88.1703
1277217506753,88.2503
1277217566753,88.1649
1277217626753,88.4556
1277217686753,88.2952
1277217746753,88.4094
1277217806753,88.3851
1277217866753,88.2609
1277217926753,88.2930
1277217986753,88.3023
1277218046753,88.1533
1277218106753,88.3592
1277218166753,88.2366
1277218226753,88.5036
1277218286753,88.3460
1277218346753,88.4478
1277218406753,88.1870
1277218466753,88.2172
1277218526753,88.2125
1277218586753,88.2683
1277218646753,88.3915
1277218706753,88.1760
1277218766753,88.4780
1277218826761,88.1385
1277218886761,88.3191
1277219426761,88.3744
1277219486761,88.0792
1277219546761,88.2568
1277219606761,88.3525
1277219666761,88.3755
1277219726761,88.2318
1277219786761,88.2130
1277219846761,88.1729
1277219906761,88.1451
1277219966761,88.1247
1277220026761,88.3575
1277220086761,88.1140
1277220146761,88.2137
1277220206761,88.2383
1277220266761,88.2373
1277220326761,88.0378
1277220386761,88.3083
1277220446761,88.0512
1277220506761,88.2328
1277220566761,88.0507
1277220626761,88.0344
1277220686761,88.0190
1277220746761,88.2117
1277220806761,87.9143
1277220866761,88.1359
1277220926761,88.2509
1277220986761,88.3767
1277221046761,88.2275
1277221106761,88.1702
1277221166761,88.1670
1277221226761,88.2677
1277221286761,88.0765
1277221346761,88.0104
1277221406761,87.9671
1277221466761,88.2827
1277221526761,88.0714
1277221586761,88.0182
1277221646761,88.2686
1277221706761,88.1141
1277221766761,88.1539
1277221826761,88.1861
1277221886761,88.0683
1277221946761,88.2184
1277222006761,88.1930
1277222066761,88.2656
1277222126761,88.2517
1277222186761,88.1458
1277222246761,88.1417
1277222306761,88.2857
1277222366761,88.2969
1277222426770,88.2864
1277222486770,88.1773
1277222546770,88.2135
1277222606770,88.3426
1277222666770,88.3800
1277222726770,88.2615
1277222786770,88.3349
1277222846770,88.3696
1277222906770,88.3311
1277222966770,88.3150
1277223026770,88.4956
1277223086770,88.3095
1277223146770,88.4882
1277223206770,88.4560
1277223266770,88.1725
1277223326770,88.2758
1277223386770,88.4109
1277223446770,88.2321
1277223506770,88.3503
1277223566770,88.2052
1277223626770,88.4928
1277223686770,88.5846
1277223746770,88.4488
1277223806770,88.5775
1277223866770,88.4236
1277223926770,88.4306
1277223986770,88.3806
1277224046770,88.5526
1277224106770,88.4413
1277224166770,88.5520
1277224226770,88.6118
1277224286770,88.4570
1277224346770,88.4234
1277224406770,88.3187
1277224466770,88.5063
1277224526770,88.3764
1277224586770,88.4288
1277224646770,88.3227
1277224706770,88.5300
1277224766770,88.5899
1277224826770,88.4073
1277224886770,88.3865
1277224946770,88.5081
1277225006770,88.6284
1277225066770,88.6414
1277225126770,88.6657
1277225186770,88.4047
1277225246770,88.5011
1277225306770,88.6802
1277225366770,88.4005
1277225426770,88.5976
1277225486770,88.6119
1277225546770,88.4774
1277225606770,88.6278
1277225666770,88.5631
1277225726770,88.6796
1277225786770,88.4509
1277225846770,88.6619
1277225906770,88.6500
1277225966770,88.6667
1277226026779,88.5455
1277226086779,88.5856
1277226146779,88.4919
1277226206779,88.7095
1277226266779,88.6192
1277226326779,88.5820
1277226386779,88.5283
1277226446779,88.6812
1277226506779,88.5884
1277226566779,88.6364
1277226626779,88.7597
1277226686779,88.7152
1277226746779,88.6388
1277226806779,88.7252
1277226866779,88.6219
1277226926779,88.5848
1277226986779,88.5760
1277227046779,88.5081
1277227106779,88.6827
1277227166779,88.6566
1277227226779,88.6463
1277227286779,88.3800
1277227346779,88.5406
1277227406779,88.3969
1277227466779,88.4171
1277227526779,88.7198
1277227586779,88.7760
1277227646779,88.6823
1277227706779,88.6307
1277227766779,88.4545
1277227826779,88.8010
1277227886779,88.5716
1277227946779,88.6271
1277228006779,88.6032
1277228066779,88.4296
1277228126779,88.7279
1277228186779,88.4181
1277228246779,88.5570
1277228306779,88.4816
1277228366779,88.6448
1277228426779,88.5067
1277228486779,88.6371
1277228546779,88.5435
1277228606779,88.6800
1277228666779,88.6939
1277228726779,88.6360
1277228786779,88.6855
1277228846779,88.6096
1277228906779,88.5864
1277228966779,88.8107
1277229026779,88.6858
1277229086779,88.7472
1277229146779,88.5800
1277229206779,88.8177
1277229266779,88.5858
1277229326779,88.6226
1277229386779,88.5282
1277229446779,88.5901
1277229506779,88.7123
1277229566779,88.6102
1277229626788,88.6240
1277229686788,88.6218
1277229746788,88.7797
1277229806788,88.8238
1277229866788,88.7116
1277229926788,88.6409
1277229986788,88.9492
1277230046788,88.7055
1277230106788,88.7580
1277230166788,89.0894
1277230226788,88.6088
1277230286788,88.8828
1277230346788,88.7433
1277230406788,88.8591
1277230466788,88.7238
1277230526788,88.8109
1277230586788,88.7656
1277230646788,88.8660